{"data":{"norad_id":27168,"epoch":"2026-05-24T20:59:11.114016Z","epoch_age_seconds":82046,"freshness":"FRESH","line1":"1 27168U 02001A   26144.87443419  .00000021  00000+0  00000+0 0  9995","line2":"2 27168  11.1529  22.0545 0100034   7.4896 186.6848  1.00268571 32720","mean_motion":1.00268571,"eccentricity":0.0100034,"inclination_deg":11.1529,"raan_deg":22.0545,"arg_perigee_deg":7.4896,"mean_anomaly_deg":186.6848,"bstar":0,"rev_number":3272,"period_min":1436.1429365539,"perigee_km":35365.696293116,"apogee_km":36209.295679143,"semimajor_km":42165.632986129,"source":"CELESTRAK","updated_at":"2026-05-25T13:38:13.812475Z"}}